Location: El Bakhil
(32.7726°N, 5.5387°W)
Time: 19:51:35
(UTC+00:00)

Envisat - Pass Details

Date: 05 December 2021
Orbit: 764 x 766 km, 98.2° (Epoch: 18 January)

Event Time Altitude Azimuth Distance (km) Brightness Sun altitude
Rises 06:37:54 0° 349° (NNW) 3,235 5.9 -7.0°
Reaches altitude 10° 06:41:18 10° 325° (NW) 2,304 5.0 -6.3°
Maximum altitude 06:43:50 14° 294° (WNW) 2,032 4.5 -5.8°
Drops below altitude 10° 06:46:23 10° 264° (W) 2,297 4.9 -5.3°
Sets 06:49:46 0° 240° (WSW) 3,219 5.9 -4.7°
